Wind_Speed
25 25 24 21 19 18 19 19 19 20 22 22 20 17 11 6 4 9 12 15 15 18 21 24 20 8 13 17 17 16 15 18 22 25 27 27 26 23 23 25 27 26 22 21 21 21 24 26 27 26 24 23 24 25 25 27 28 26 25 22 21 22 23 23 21 22 23 20 17 16 15 15 14 14 14 12 11 11 13 13 12 12 12 12 12 12
26 24 21 18 18 19 21 21 21 21 22 22 23 21 15 12 8 8 11 15 17 21 23 25 23 14 13 16 21 22 21 22 22 25 26 27 27 24 22 23 24 23 21 21 22 22 23 25 25 22 19 20 24 26 26 27 27 26 26 24 22 22 23 24 22 23 23 20 16 15 15 13 13 13 12 11 11 12 14 14 12 12 12 12 12 13
24 20 18 18 20 21 23 24 22 22 22 23 25 23 22 23 16 12 14 18 21 23 23 25 27 21 10 11 19 24 24 24 24 25 27 29 29 25 21 20 21 21 20 20 22 22 22 24 22 18 17 20 25 27 27 28 27 25 24 24 22 20 23 25 22 23 24 21 19 17 16 14 13 12 11 11 12 13 15 14 13 11 10 11 11 11
20 18 19 21 23 23 23 23 22 22 23 24 25 22 23 27 22 19 22 22 21 22 24 28 30 24 13 10 14 19 22 25 26 27 29 30 31 28 23 21 21 22 22 21 22 21 19 20 20 19 20 23 25 27 26 25 25 24 22 21 19 17 21 24 21 22 23 22 21 19 17 15 14 13 11 11 12 13 14 13 11 10 9 9 9 9
20 21 24 25 26 25 24 23 22 24 26 27 26 21 23 28 26 25 24 21 21 24 27 29 30 29 22 17 17 17 19 22 25 27 30 32 31 29 26 24 22 21 23 23 22 21 19 18 21 23 26 27 26 27 25 20 17 18 18 19 19 17 20 22 20 19 18 18 19 19 18 16 14 13 11 12 12 12 13 12 11 10 9 9 10 9
22 25 26 27 27 27 26 25 24 26 28 27 22 16 20 26 26 26 24 23 26 27 27 27 29 31 24 19 18 16 18 20 20 20 23 29 32 31 30 28 26 21 20 22 22 22 22 23 24 25 27 26 26 28 29 26 21 17 16 17 20 20 20 20 16 14 13 14 15 16 17 15 13 13 12 13 12 12 13 13 12 10 11 12 13 12
24 25 27 27 27 27 27 26 27 28 27 24 19 17 20 24 25 27 27 27 27 24 25 26 28 30 24 19 19 18 18 18 15 13 14 20 26 30 31 30 29 24 19 20 20 22 25 28 28 26 26 25 24 26 29 30 27 22 18 17 19 20 21 21 17 14 12 12 12 13 14 13 12 12 13 13 12 12 14 13 11 11 12 14 14 13
23 24 26 27 28 28 28 28 29 27 23 20 19 19 20 20 22 25 25 25 24 23 26 28 28 30 25 19 19 19 19 17 14 11 11 16 20 25 26 25 26 25 21 19 19 23 28 31 29 26 27 26 24 25 27 27 28 26 23 20 18 19 21 23 21 17 14 13 13 14 14 13 13 13 14 14 13 13 13 11 10 11 12 13 14 13
21 22 24 24 25 27 26 24 23 22 20 18 18 18 17 17 18 19 21 22 23 25 28 29 30 31 26 19 19 19 15 14 15 12 13 18 22 24 23 22 22 24 23 21 21 25 28 29 28 27 29 29 26 26 26 26 27 27 26 23 21 19 19 20 20 19 16 16 16 16 16 16 15 15 15 13 10 11 12 11 10 11 12 13 15 15
20 19 22 21 20 23 23 20 19 21 21 18 16 18 19 19 17 17 21 21 21 25 25 24 28 30 26 21 21 18 13 17 20 16 16 20 24 25 25 24 24 25 25 23 23 25 25 25 26 28 30 29 27 25 25 25 26 26 26 24 22 19 18 18 19 19 15 13 14 15 16 18 18 17 16 13 11 11 13 13 14 14 14 15 15 14
20 18 20 22 21 23 22 19 20 22 20 18 18 20 21 20 19 20 21 18 19 23 19 17 20 23 22 20 20 19 17 20 24 22 21 22 25 27 28 27 27 28 28 26 27 27 24 20 20 23 26 27 25 25 26 26 26 26 26 26 23 21 20 20 20 20 17 14 15 13 13 16 18 16 16 15 14 15 16 16 17 18 18 17 16 15
23 23 24 24 25 25 22 20 20 19 19 20 20 21 22 22 23 22 20 19 22 21 15 13 16 17 16 17 19 21 22 23 22 23 24 26 28 30 31 30 29 31 31 30 27 23 17 13 15 17 20 23 23 25 27 27 26 26 28 29 28 24 23 24 23 21 19 17 15 14 13 14 16 15 14 15 16 17 18 18 19 19 20 19 18 18
25 27 25 23 24 24 19 17 17 20 21 20 18 20 23 24 24 23 20 21 22 18 13 12 13 13 15 18 22 23 24 24 22 22 25 27 30 31 32 32 33 34 34 32 28 24 21 22 25 24 23 24 24 25 27 28 29 29 29 29 29 28 25 24 24 22 19 14 10 11 12 13 15 16 15 15 16 18 20 20 20 20 21 21 20 18
23 26 25 22 23 21 16 13 14 19 20 17 15 18 21 22 22 22 19 19 20 17 14 12 12 14 18 23 25 25 25 24 22 21 23 27 30 31 31 32 34 35 34 31 28 28 29 29 29 28 28 28 27 26 27 29 30 31 30 28 28 28 26 23 23 23 22 18 14 13 15 16 16 16 16 17 17 18 19 20 22 22 21 21 20 17
22 26 25 23 22 19 16 14 13 16 19 17 16 19 21 21 20 19 18 18 18 17 14 12 14 17 21 25 26 26 26 24 23 22 22 24 26 28 30 32 35 35 35 33 30 29 30 29 28 26 26 28 29 31 34 33 32 31 30 28 26 25 25 24 23 24 24 23 21 18 17 17 18 17 17 17 17 18 18 19 21 23 22 21 20 16
22 23 21 20 21 20 17 15 15 18 20 19 18 18 19 18 18 18 18 19 19 19 18 17 18 20 22 25 24 24 25 24 23 23 23 24 24 25 27 30 34 35 35 36 34 32 30 29 27 26 26 29 32 34 34 33 33 31 28 27 25 20 18 19 19 21 21 21 19 17 16 18 19 19 19 18 17 17 17 18 19 21 22 22 20 16
21 20 19 17 18 19 18 16 18 20 19 18 17 15 14 14 17 17 17 19 21 22 20 18 19 21 24 25 24 23 23 22 22 23 23 25 25 25 27 29 32 34 35 36 34 33 31 29 27 27 28 30 31 31 32 32 32 29 27 28 23 15 12 14 15 15 15 15 15 16 18 19 19 18 19 19 18 17 17 17 17 19 22 23 20 17
21 19 19 18 17 17 15 16 20 21 19 19 17 14 12 13 17 19 18 19 22 23 22 19 19 23 25 25 24 24 24 23 21 21 21 22 23 24 26 29 32 34 35 35 34 34 32 29 28 28 28 29 29 30 32 32 30 26 26 26 20 14 12 14 15 15 15 15 15 16 17 18 17 16 17 18 18 18 18 17 16 17 21 23 21 17
23 21 20 21 19 16 16 17 20 21 21 21 19 16 14 15 17 18 19 21 23 24 24 21 21 25 26 25 23 23 24 23 21 20 20 21 22 23 24 26 29 31 31 31 32 31 30 30 31 32 32 30 28 26 28 29 29 29 29 27 22 19 19 18 17 18 18 16 14 13 14 15 15 15 15 16 18 19 18 17 17 18 21 23 22 19
26 25 23 23 21 18 18 18 19 20 21 22 22 22 20 20 20 18 18 21 22 23 24 21 21 25 27 26 24 23 24 23 22 22 22 22 22 22 23 25 26 26 26 26 27 27 28 27 26 27 28 25 21 18 20 25 27 28 30 27 23 23 21 18 17 17 16 14 11 11 12 14 15 14 14 15 17 18 18 17 17 19 22 23 22 21
27 27 24 23 21 20 18 17 17 18 19 21 25 25 21 22 23 22 21 22 22 23 25 23 24 27 26 25 23 22 22 22 23 24 23 22 21 20 21 22 22 22 21 22 24 25 25 19 12 10 11 10 9 6 7 15 19 21 23 21 20 20 17 15 14 14 14 13 13 13 15 17 18 16 15 15 17 18 18 16 17 19 22 24 23 22
26 27 24 22 23 23 20 16 12 14 18 20 22 23 21 20 23 23 24 25 25 25 24 24 27 29 27 25 24 23 22 21 22 24 23 21 19 17 17 19 19 18 18 19 21 22 22 19 13 8 8 7 6 7 6 1 7 12 16 16 16 15 13 12 13 13 14 15 17 17 18 20 20 18 16 15 16 18 17 16 16 18 22 24 23 23
25 27 26 25 26 24 21 15 10 12 16 17 15 17 19 20 23 25 25 25 25 26 26 25 27 29 29 26 23 21 20 19 18 17 17 17 15 14 15 17 18 17 16 18 20 20 20 20 21 20 18 15 12 8 6 3 1 5 9 10 11 10 8 9 11 12 13 15 18 20 20 22 23 20 17 15 16 18 17 16 15 17 21 24 24 24
29 29 29 29 28 26 22 20 18 16 17 19 19 20 21 22 25 27 27 25 23 25 27 27 28 30 29 24 20 18 19 19 17 13 11 11 11 11 13 15 16 15 16 17 19 20 20 19 20 22 20 17 13 11 11 10 8 8 9 8 9 11 10 10 12 14 15 15 17 20 20 21 23 21 18 15 16 17 17 16 16 18 22 24 24 24
31 30 30 31 31 28 24 24 26 24 22 24 26 25 25 25 26 26 27 26 26 28 29 28 29 30 26 20 16 17 17 17 17 16 14 11 9 10 11 14 15 15 15 16 16 17 18 17 17 17 16 15 13 13 13 14 14 14 14 14 15 15 14 13 14 15 16 17 18 20 19 20 23 21 19 17 17 17 16 15 17 20 22 22 22 23
31 32 32 32 32 30 27 29 30 29 27 27 28 28 27 28 27 26 27 27 28 31 32 30 30 29 26 21 17 16 16 14 13 14 14 13 11 10 10 13 15 15 15 16 16 16 16 15 15 16 15 14 14 15 15 16 16 16 17 19 19 18 18 17 18 18 17 19 21 21 18 20 22 19 18 18 18 17 15 14 17 21 23 23 22 23
29 32 32 31 31 31 30 32 33 31 29 28 30 31 30 31 30 29 29 29 29 31 32 31 31 30 28 24 20 19 18 15 12 11 12 13 11 10 10 11 13 14 14 15 15 15 15 14 15 15 16 15 16 17 18 19 20 19 19 21 21 21 20 19 21 21 19 20 22 20 18 19 20 18 16 17 18 18 16 15 18 21 23 23 22 22
28 30 30 28 29 30 31 32 32 31 30 29 30 30 31 32 32 32 32 31 30 31 32 31 31 29 28 27 25 23 18 14 12 12 13 14 13 11 11 11 12 13 13 13 14 14 14 14 15 15 16 16 17 19 20 21 22 21 21 21 22 23 21 20 22 22 20 20 20 19 18 18 18 18 17 16 17 18 17 17 19 21 23 23 22 21
32 31 31 28 27 27 29 31 30 29 30 30 30 30 30 30 31 33 34 32 29 29 29 28 25 23 23 23 22 20 17 14 14 15 15 15 14 12 11 11 12 13 13 13 14 14 14 14 15 16 16 17 18 19 20 20 21 21 21 22 23 24 23 22 22 21 21 21 19 18 19 19 20 20 19 16 17 18 18 18 20 22 24 23 21 19
33 32 32 30 28 27 28 30 31 30 30 30 30 31 30 29 29 31 32 31 29 29 29 27 24 23 23 22 18 15 14 14 14 14 15 16 15 14 13 12 13 13 13 13 14 14 14 15 15 16 17 17 18 19 19 19 20 20 21 22 23 24 24 23 21 21 21 21 19 18 19 20 21 20 19 18 19 20 18 18 22 25 25 23 21 19
35 34 33 32 31 28 28 30 32 32 30 30 30 30 29 29 30 31 31 30 30 30 30 29 27 27 27 27 23 19 16 15 14 14 15 16 17 16 14 13 13 13 13 14 13 14 14 15 15 16 16 17 18 18 18 18 19 19 20 21 22 23 23 22 20 20 20 20 19 20 19 20 21 21 20 20 21 21 19 20 24 25 23 21 20 19
32 34 34 34 33 30 29 29 31 32 30 29 29 29 29 31 32 31 29 29 28 28 26 25 25 25 24 23 22 21 20 19 18 17 17 17 18 18 17 16 15 15 15 15 14 15 15 15 16 15 16 17 17 17 17 17 18 19 19 20 20 20 21 21 19 19 20 19 20 21 20 20 20 20 20 21 21 20 19 21 24 21 18 18 18 18
25 28 31 34 34 32 29 28 28 30 31 29 28 27 27 29 31 30 28 27 27 27 24 20 20 21 22 22 21 21 22 21 21 21 19 18 19 19 19 19 18 18 17 16 16 16 16 16 16 16 16 16 17 17 17 17 18 19 19 20 19 18 18 18 17 17 18 18 20 22 21 19 18 18 19 21 21 19 19 22 22 18 17 17 18 20
21 22 25 28 31 32 31 30 29 29 30 30 27 27 27 26 27 29 30 28 28 28 27 23 21 21 22 22 22 22 22 22 22 22 21 20 21 21 20 21 20 20 19 18 18 18 18 17 17 17 17 17 17 18 18 18 18 19 19 19 19 17 15 15 15 16 17 18 19 21 21 19 18 18 19 20 20 19 21 23 21 19 19 20 22 24
21 20 20 22 26 29 30 31 31 31 32 30 28 28 29 26 24 25 28 30 30 30 29 28 26 25 25 24 22 22 22 22 22 22 22 22 23 23 22 22 21 21 21 20 20 20 19 19 18 19 18 17 17 18 18 18 18 18 19 19 18 17 15 14 15 17 17 18 18 18 18 18 18 18 18 19 20 21 23 23 21 20 20 22 24 25
23 22 21 20 22 26 28 29 29 31 31 30 28 27 28 25 22 20 23 26 29 29 29 28 27 26 26 26 25 24 23 23 23 23 23 24 24 24 24 23 23 23 23 21 21 21 20 19 19 20 19 18 18 19 19 19 18 18 18 17 17 17 16 15 15 16 16 17 19 17 15 15 17 19 19 20 22 24 24 22 21 20 20 22 23 23
24 24 23 22 22 24 27 28 29 29 29 29 28 28 28 26 22 21 20 22 25 27 27 27 26 25 26 28 28 27 26 25 25 25 26 25 25 24 24 24 24 25 25 23 22 21 19 19 20 20 19 18 19 19 20 19 19 19 18 18 16 16 16 15 13 14 14 14 16 16 14 14 15 17 20 22 24 25 24 23 22 20 20 21 22 22
24 24 25 24 23 24 26 27 29 30 30 29 28 27 27 27 26 25 23 22 23 26 27 27 26 25 25 27 29 30 28 27 27 27 27 27 26 26 26 26 26 27 27 25 24 22 21 21 20 20 19 19 20 20 21 20 20 19 19 18 17 16 16 16 15 14 14 12 11 12 14 15 15 16 18 21 23 23 23 22 22 21 22 24 25 24
24 25 26 26 26 25 26 26 28 29 29 28 28 28 28 29 28 28 28 26 25 25 27 29 29 28 27 27 29 31 30 29 29 28 28 28 28 28 27 27 27 28 28 28 27 26 25 24 23 22 21 21 21 21 22 22 21 20 19 19 18 17 17 17 17 16 15 13 11 12 14 16 16 16 18 20 21 23 23 23 23 25 28 30 30 28
24 25 25 27 28 28 27 26 26 27 27 26 26 27 27 28 28 28 27 28 26 24 25 27 28 28 27 26 28 30 31 29 29 29 29 29 29 29 29 29 29 29 29 30 30 29 28 27 26 25 24 23 23 23 23 23 22 21 21 21 20 19 18 18 18 17 16 15 13 14 15 16 16 19 22 24 26 27 27 27 28 30 31 31 31 31
22 23 24 24 26 27 27 26 25 24 25 24 24 23 23 23 24 24 24 24 23 22 22 24 25 25 24 25 26 29 31 31 30 29 29 29 29 30 30 31 31 31 31 31 31 31 30 30 29 28 26 25 24 24 25 25 24 23 22 22 22 22 21 20 20 19 19 18 16 15 15 16 19 23 26 28 31 34 34 34 34 34 33 33 33 31
20 20 21 22 23 24 24 24 23 23 22 22 22 22 21 20 20 20 20 20 20 18 19 21 21 20 20 21 24 27 30 31 31 31 31 30 30 31 31 32 33 33 33 33 33 33 32 31 30 30 29 27 26 26 26 26 26 24 23 23 24 23 22 22 22 21 21 21 21 20 17 16 18 20 22 25 30 35 37 36 35 34 33 32 30 26
16 16 17 18 20 21 20 20 21 22 21 20 20 20 21 20 19 18 17 18 17 15 15 17 17 16 16 17 20 23 27 29 31 32 32 32 31 31 32 32 33 34 35 34 34 34 33 33 32 31 31 30 28 27 27 28 28 27 25 24 24 23 23 23 23 23 23 22 23 23 22 21 20 20 20 21 23 25 25 24 23 24 24 23 22 22
13 14 14 15 16 18 18 19 20 20 19 18 17 17 17 17 17 16 16 16 17 16 16 15 15 15 15 15 16 18 21 23 26 28 29 29 29 29 30 31 32 33 33 34 34 34 34 34 33 32 32 32 30 29 29 29 29 28 27 26 24 24 23 23 22 22 22 23 23 24 24 23 23 24 24 24 22 20 17 16 17 18 17 18 19 21
12 12 12 13 15 15 16 18 18 18 17 15 15 15 14 14 14 15 15 15 16 17 18 18 17 16 16 16 16 17 18 19 21 23 24 24 24 24 25 27 28 30 30 31 32 33 33 34 35 35 34 32 31 31 30 30 30 30 29 27 26 25 24 24 23 22 20 20 21 23 24 23 23 24 26 26 26 24 22 20 20 19 17 17 17 19
14 12 11 13 13 13 13 13 14 14 13 13 13 13 13 13 14 14 14 15 15 16 17 18 18 18 18 18 18 19 20 21 22 23 23 24 24 24 24 24 26 27 27 27 27 28 30 32 35 37 36 33 32 32 31 31 31 31 30 30 29 28 27 26 25 23 20 19 20 23 24 24 23 25 27 28 28 28 27 26 25 23 22 22 21 22
16 14 13 11 10 10 11 11 12 11 10 10 10 10 11 12 13 13 14 15 15 16 17 18 19 20 20 20 21 21 22 22 23 24 24 25 26 26 26 26 26 27 27 26 26 27 28 31 34 37 37 36 35 34 32 32 32 32 32 31 30 29 29 28 27 24 21 20 20 21 22 24 24 25 26 28 28 28 27 27 26 25 25 26 26 27
15 15 13 10 8 8 9 10 10 10 9 9 9 9 9 10 11 12 13 14 15 16 17 18 19 20 21 22 23 24 24 25 25 25 25 25 26 26 27 27 28 29 29 29 29 29 30 32 34 36 37 38 37 35 34 33 33 32 31 31 30 28 27 28 28 26 24 23 22 21 22 24 26 26 27 28 29 29 28 28 28 28 28 28 28 28
12 12 12 10 9 9 9 9 9 9 8 8 9 9 9 10 11 12 13 14 15 16 18 19 20 21 22 23 24 25 26 27 28 28 28 28 28 28 28 28 28 30 31 32 33 33 33 34 34 35 36 37 36 35 34 33 32 31 30 28 27 26 24 24 25 27 27 27 26 24 24 26 27 27 28 29 29 30 31 31 30 29 28 28 28 28
10 10 10 10 9 9 8 8 8 8 8 8 9 9 10 11 12 13 14 15 17 18 19 21 22 24 25 26 27 28 29 29 30 31 31 32 32 32 32 31 31 32 33 34 35 36 36 35 35 35 35 35 34 33 32 30 28 27 27 25 23 23 23 23 25 27 28 28 28 28 28 28 28 28 29 30 30 30 31 31 31 31 30 29 29 29
11 10 9 9 8 7 7 7 7 7 7 8 8 9 10 10 11 12 14 15 16 18 19 21 23 25 27 29 30 32 33 33 34 34 35 36 36 35 35 35 35 35 35 35 36 36 36 36 36 35 35 34 34 33 31 27 24 23 24 25 24 23 23 24 26 30 31 31 30 29 29 28 28 29 30 31 31 31 30 30 31 32 33 32 31 31
Wind_Direction
219 220 219 219 219 219 221 220 216 217 220 222 224 225 226 246 217 194 229 253 268 283 284 282 288 260 217 240 251 244 248 261 275 278 277 282 283 281 282 281 282 278 271 264 258 255 258 263 267 268 273 283 285 282 279 275 274 275 273 268 266 266 260 255 255 250 245 240 231 230 234 237 240 244 249 256 260 257 256 256 256 261 263 261 264 250
218 219 215 213 213 212 214 214 212 216 222 225 226 222 202 191 191 193 237 264 268 269 276 279 284 273 223 236 260 259 254 259 276 281 276 280 279 273 273 276 278 276 268 260 257 256 256 260 263 265 272 278 277 275 272 272 271 272 276 275 274 274 261 251 247 245 243 241 239 233 233 233 233 240 249 257 263 262 260 258 257 259 261 264 260 244
215 214 210 209 213 215 216 217 215 214 222 229 233 228 203 186 179 187 222 245 253 259 269 272 274 275 253 236 253 259 260 259 269 279 278 278 279 276 271 271 273 274 268 259 257 259 260 263 261 258 267 269 267 264 263 267 266 270 280 277 274 270 255 246 239 236 236 234 236 234 231 232 232 239 246 255 266 268 266 263 260 260 262 262 251 240
210 207 208 211 215 218 220 222 219 216 219 225 233 233 211 195 187 193 207 224 245 260 264 266 273 276 266 252 251 251 258 260 260 269 275 274 276 278 275 272 274 276 272 264 258 260 264 263 250 243 258 260 259 260 262 268 267 270 278 269 264 259 250 251 245 236 235 233 236 234 232 236 237 238 241 250 263 268 270 268 266 266 264 254 235 224
211 212 214 216 218 219 220 221 218 219 221 220 226 230 217 206 199 197 201 211 228 245 254 262 272 276 273 274 269 254 255 259 254 255 266 271 272 275 276 273 272 274 274 267 260 260 260 254 243 246 259 259 258 259 262 277 282 275 271 256 255 259 249 248 243 237 240 238 237 236 236 240 240 243 247 256 265 269 271 272 270 265 253 239 227 221
214 219 221 221 222 222 221 219 217 221 225 227 228 224 219 219 215 210 204 205 215 228 245 255 263 269 274 276 275 270 263 260 256 249 255 266 266 266 271 273 272 270 266 260 255 255 253 250 247 252 261 262 262 262 263 276 287 288 283 262 257 259 251 249 244 240 245 240 240 240 238 237 239 251 261 268 273 269 269 271 267 257 243 236 235 237
215 220 224 223 221 222 222 220 221 223 224 227 227 216 216 221 224 224 217 219 228 237 249 254 258 264 270 276 278 276 267 258 258 260 270 282 278 270 270 273 275 269 252 244 245 246 247 248 248 250 258 262 262 263 265 268 272 277 281 269 260 255 252 257 257 254 255 253 257 251 237 232 242 256 265 272 276 268 266 266 256 247 243 239 236 240
214 220 225 227 224 222 222 221 224 227 223 219 219 218 221 221 225 232 233 237 246 254 255 252 257 268 277 285 281 274 272 265 259 267 284 291 284 275 270 268 272 268 251 239 237 238 243 248 250 251 256 260 259 261 265 266 264 264 265 262 259 255 256 261 265 270 276 273 272 266 251 246 252 260 265 272 273 263 259 254 243 239 240 235 232 238
206 217 226 232 235 230 228 228 227 227 223 215 215 218 218 215 215 226 233 234 238 245 247 244 251 264 273 277 271 269 268 254 249 252 253 258 262 266 265 262 268 270 258 242 230 229 236 244 248 250 253 256 258 260 264 268 268 265 262 258 255 257 261 264 265 271 278 279 276 269 263 262 262 261 262 267 263 252 252 249 241 235 234 234 236 242
199 209 224 228 236 239 238 237 227 222 220 211 210 215 214 214 213 221 229 232 242 250 250 247 250 256 262 264 263 266 249 220 224 234 239 249 257 263 266 265 267 268 262 255 245 235 235 243 247 249 253 256 259 263 264 265 268 268 267 262 256 257 262 264 262 261 266 282 283 270 263 263 262 260 258 257 249 246 252 251 247 242 240 243 243 243
202 197 213 219 225 234 235 227 218 217 217 207 206 216 219 224 226 228 232 235 248 258 261 260 251 246 252 257 255 259 251 228 222 226 233 242 249 256 262 265 265 264 266 274 268 249 238 247 256 254 260 266 269 272 271 267 267 268 269 266 259 255 256 256 256 254 254 272 283 277 269 263 258 257 254 252 248 247 251 250 247 247 246 246 245 243
209 204 208 214 223 231 230 223 219 219 219 211 207 213 216 221 229 234 236 236 243 257 266 262 251 245 251 256 251 250 251 246 239 235 237 242 246 250 252 256 263 266 269 277 274 253 239 264 283 278 274 275 277 277 275 273 271 270 269 268 263 259 257 252 251 251 253 266 271 264 265 263 259 258 254 251 247 243 244 243 243 245 245 245 245 243
212 219 218 217 227 235 232 226 224 223 225 221 212 217 221 225 235 242 243 245 252 260 258 245 242 241 245 251 254 254 254 255 253 245 242 244 249 252 249 251 258 264 267 271 270 263 268 283 287 285 283 281 279 275 273 273 271 270 269 268 266 262 255 248 248 250 252 255 247 247 260 263 262 263 258 253 247 241 239 238 238 241 243 245 242 237
210 223 229 222 226 235 233 224 223 225 230 230 220 225 232 233 242 248 247 248 254 256 245 232 226 225 232 243 250 255 257 258 257 250 243 244 250 256 256 255 257 261 266 270 270 268 273 278 277 277 279 279 275 269 266 266 265 265 265 266 267 263 254 245 244 249 252 247 239 253 271 270 262 257 253 250 247 242 238 235 235 237 241 241 233 230
207 218 231 233 232 237 232 221 219 225 229 228 224 228 235 236 238 246 250 250 251 252 242 229 230 230 233 241 245 248 253 259 260 257 251 249 252 258 260 260 261 265 269 271 273 272 274 277 274 272 272 271 273 273 266 260 258 257 258 261 260 260 257 250 246 249 253 253 253 258 263 260 253 247 244 244 244 242 238 234 233 234 237 233 224 228
213 215 225 237 237 227 214 209 213 221 225 226 224 226 233 238 236 233 236 241 244 247 239 226 231 238 240 245 250 250 251 255 260 262 263 263 262 263 263 263 264 266 268 270 273 274 277 278 276 275 272 269 273 275 268 259 258 258 258 258 255 251 256 256 251 250 252 255 257 254 243 236 235 235 235 236 239 240 236 234 233 232 230 222 219 231
219 219 219 227 231 222 209 206 216 220 223 230 232 234 238 239 234 224 223 235 243 246 243 235 237 245 247 248 252 254 254 254 257 262 266 269 270 269 266 264 264 266 268 270 273 275 278 279 276 277 279 276 273 272 267 261 258 259 260 259 255 249 249 252 248 246 245 246 246 241 231 222 219 224 228 229 232 234 232 232 231 227 222 217 221 235
218 222 220 215 218 230 225 212 214 214 216 223 226 237 253 245 230 220 217 230 241 245 247 241 239 246 249 250 252 256 259 257 256 258 260 265 269 270 268 266 264 265 266 268 270 273 277 279 279 280 281 281 274 268 266 260 252 254 256 249 239 232 230 229 226 225 226 226 228 230 225 217 213 219 227 227 226 226 225 226 226 223 218 215 222 234
217 217 217 211 207 222 230 219 215 210 208 214 210 209 228 238 235 229 225 230 237 243 247 244 241 245 248 251 252 253 256 258 257 257 259 264 268 270 271 270 266 264 265 267 268 270 274 278 280 282 282 279 273 265 260 253 246 245 243 229 215 215 218 214 212 215 215 215 219 227 228 223 222 226 232 233 228 224 222 220 220 220 215 214 222 233
224 220 215 214 210 216 226 225 219 209 204 212 213 206 206 213 225 235 237 240 243 245 248 249 246 247 248 251 252 253 259 264 264 264 263 263 267 269 270 269 266 264 265 267 269 270 274 276 275 279 280 271 264 264 252 243 240 238 232 221 212 215 219 217 218 222 224 227 234 239 235 234 239 243 247 244 236 228 224 221 219 216 213 215 225 234
227 227 220 217 211 210 222 230 222 210 205 211 218 220 213 206 214 226 234 238 242 244 246 246 246 250 252 253 256 258 264 268 270 271 267 261 261 264 265 264 263 264 264 266 269 271 275 277 274 285 288 258 252 290 259 234 234 230 223 217 217 222 226 230 236 243 250 258 261 251 237 237 244 250 255 254 243 233 229 226 223 218 214 218 227 233
226 228 223 220 215 209 214 224 224 215 212 215 220 227 227 215 212 222 231 236 240 243 245 247 250 253 255 256 260 261 263 272 280 276 265 255 255 257 259 259 257 260 264 266 269 270 271 274 274 283 308 306 310 355 23 224 228 225 221 220 221 227 236 240 242 250 259 265 263 254 244 241 244 248 251 251 241 232 230 231 231 225 217 219 227 229
224 225 219 217 219 216 209 205 215 229 220 213 220 235 240 232 222 224 230 236 242 246 248 250 254 258 261 262 264 265 266 275 284 278 260 251 252 251 248 249 252 255 260 264 268 270 269 269 269 271 285 303 310 319 336 345 248 234 241 238 231 237 257 267 264 264 266 264 258 255 254 249 245 245 245 240 228 223 225 228 234 230 219 218 223 225
218 224 221 216 216 217 209 195 200 222 217 201 208 227 237 236 230 228 229 233 240 246 247 248 252 258 261 262 265 271 270 268 273 277 270 261 257 251 243 243 249 253 257 263 268 272 274 273 271 272 280 291 297 296 297 294 287 289 297 291 272 266 273 279 277 273 271 267 264 268 268 253 241 240 240 234 222 216 218 223 230 227 219 219 222 222
210 220 224 220 214 213 211 201 199 208 208 198 200 212 222 227 230 230 229 229 235 243 245 245 249 253 254 259 269 272 265 263 268 270 271 272 265 256 250 249 253 255 258 265 269 274 280 282 282 282 284 287 290 294 296 293 292 298 307 307 298 292 295 293 284 274 269 271 279 286 280 254 239 238 238 232 222 215 216 221 224 222 220 223 225 220
212 218 223 222 216 211 209 208 203 201 205 207 203 207 217 225 228 229 230 230 234 241 245 245 247 250 254 263 270 267 264 271 275 266 263 270 270 263 258 255 258 261 262 265 268 272 278 284 287 288 287 287 288 290 294 294 296 299 302 302 300 300 303 299 290 283 274 275 286 291 278 252 240 239 237 232 225 217 218 222 218 216 221 226 225 221
217 222 226 224 220 215 210 210 209 206 211 216 210 208 216 224 226 227 231 233 236 240 246 249 251 253 258 264 267 268 271 274 270 258 254 261 264 264 264 261 262 264 265 265 266 268 272 276 281 284 285 285 284 286 288 288 292 294 295 297 298 298 299 295 289 284 275 274 282 285 271 251 241 240 237 234 228 221 222 223 215 216 226 228 222 221
218 223 228 226 224 222 217 217 218 216 219 223 220 219 222 225 227 228 230 234 238 240 245 250 254 256 260 263 263 263 263 262 262 260 253 252 254 257 260 263 265 266 267 267 265 265 268 270 273 277 280 282 281 283 284 285 288 290 291 293 293 294 295 293 290 287 280 276 276 275 265 249 242 241 235 232 232 226 225 224 215 218 226 224 219 222
220 223 228 229 227 226 223 222 223 223 224 225 227 230 231 230 229 228 228 232 238 242 246 250 252 255 259 262 258 251 248 253 262 263 256 255 257 256 255 258 262 265 268 268 268 267 268 268 270 271 274 277 277 279 281 283 286 288 289 290 290 291 292 291 291 288 282 276 269 266 261 249 242 237 227 228 234 225 222 222 215 216 221 220 221 226
224 224 226 229 229 226 225 226 227 226 225 225 228 232 235 236 235 233 233 234 238 244 250 255 257 257 258 261 259 251 249 252 254 255 256 259 262 262 259 256 257 262 266 268 270 271 271 271 271 271 273 275 275 276 277 279 281 283 285 286 289 291 291 291 290 285 278 271 261 259 257 246 238 229 224 232 235 223 220 220 213 211 215 223 231 235
227 226 224 226 229 228 227 229 229 228 226 228 230 233 237 240 239 238 239 239 240 244 249 255 258 257 258 262 262 255 249 245 245 250 255 257 259 260 258 254 256 260 263 267 271 274 276 276 274 275 277 277 276 277 277 277 279 280 282 284 288 290 290 288 285 279 273 264 256 256 254 242 235 232 233 235 229 221 221 215 207 207 215 228 239 240
225 225 223 224 227 228 230 231 228 227 227 229 231 233 237 241 240 237 237 239 242 247 251 253 253 253 256 261 259 250 243 240 242 250 255 254 254 255 254 254 256 258 260 263 267 272 277 279 281 282 282 281 280 280 281 281 281 282 284 287 289 289 286 282 277 269 261 254 253 256 252 240 234 236 233 225 220 226 228 212 203 208 222 234 242 241
222 221 221 221 221 222 228 232 230 228 230 232 231 230 234 240 241 238 237 240 244 247 248 246 245 247 249 252 251 245 241 241 243 247 249 248 247 249 253 255 256 257 259 260 262 267 271 276 281 284 284 284 283 283 284 285 286 288 289 291 293 290 285 279 269 256 249 252 255 250 241 234 231 231 227 221 222 232 230 213 207 218 230 233 235 236
225 221 220 221 221 221 228 235 234 232 234 234 232 230 235 242 246 242 240 242 245 245 243 243 247 250 249 248 247 243 240 242 244 243 242 241 242 245 249 251 253 254 255 256 257 260 264 269 275 278 280 280 281 283 285 287 289 290 292 294 296 294 288 275 258 244 243 254 256 242 229 227 229 229 229 229 229 227 217 211 216 228 233 229 228 229
232 230 228 226 225 225 230 236 238 238 238 238 237 237 240 246 251 247 240 239 243 245 246 247 252 254 251 248 246 243 241 241 243 243 241 240 243 245 246 247 249 250 251 252 254 256 259 264 268 271 273 275 277 279 281 283 285 287 289 293 296 296 291 276 258 248 245 247 245 234 224 223 227 230 230 229 225 217 213 216 225 232 234 232 230 231
238 240 240 236 232 231 232 235 239 241 242 242 242 241 240 244 253 252 241 237 241 245 247 250 252 252 251 248 246 246 244 243 244 244 243 242 243 245 246 247 248 250 251 250 251 254 258 261 264 266 268 270 272 274 276 279 280 282 284 289 294 296 298 290 267 249 242 239 236 234 230 223 223 226 226 223 218 215 218 226 231 232 235 236 234 234
242 244 245 244 240 239 238 238 239 242 243 242 243 244 242 244 252 256 247 239 239 243 245 248 250 250 250 249 247 247 246 246 245 245 244 243 243 244 246 247 248 252 254 252 252 253 256 258 260 263 265 267 268 270 272 274 277 279 281 285 289 291 295 295 273 247 239 233 227 229 233 229 226 225 220 217 218 222 228 235 236 235 238 241 239 236
241 242 244 245 245 245 245 244 243 244 244 244 245 247 248 248 252 256 255 248 243 244 246 247 248 250 250 248 245 245 246 245 243 243 243 244 244 244 245 246 248 251 254 255 255 255 255 256 257 260 263 264 266 268 270 272 274 276 278 280 284 284 285 286 279 266 258 243 224 227 235 230 227 228 221 218 224 231 234 235 235 230 225 230 238 240
242 243 244 245 247 248 248 249 248 247 248 248 248 250 251 252 253 255 256 253 249 246 248 249 250 251 252 250 244 241 242 243 242 241 242 243 244 245 246 246 247 249 253 256 256 257 257 258 258 259 260 262 264 267 269 271 272 273 274 276 278 280 280 280 280 277 270 257 245 247 245 236 231 232 227 224 229 237 241 237 234 229 224 228 237 242
243 242 243 244 245 247 248 249 249 249 249 249 250 252 252 251 251 251 253 254 253 250 247 249 251 251 251 251 246 240 238 240 241 242 242 243 244 246 247 248 248 249 250 253 255 257 259 261 262 262 262 263 264 265 267 269 270 270 272 274 275 277 277 277 277 277 273 265 254 245 242 244 246 244 238 227 219 223 235 239 237 235 233 235 240 242
242 240 240 241 243 244 245 245 244 246 248 248 247 248 249 249 247 246 247 250 252 250 245 244 247 249 248 247 246 241 238 239 242 243 243 244 245 247 248 249 250 250 251 252 254 255 257 261 262 263 264 264 263 262 263 265 267 267 269 271 273 273 273 273 273 273 272 270 264 254 243 237 235 235 234 228 218 216 225 234 235 234 235 239 244 245
239 238 239 241 242 243 242 240 238 239 242 243 241 239 239 239 237 235 237 242 248 251 250 246 245 246 246 244 244 243 241 240 241 243 245 246 247 247 249 249 251 252 252 253 254 254 255 257 259 262 265 265 262 261 261 263 265 265 266 268 270 271 271 270 269 268 268 269 267 264 257 247 240 235 229 224 220 220 225 230 231 232 235 239 243 241
232 236 239 243 243 241 238 235 231 230 232 233 233 232 231 232 231 230 234 239 242 243 246 250 251 250 247 243 243 243 243 242 243 244 247 249 249 249 249 250 251 252 253 254 255 256 257 258 258 262 265 266 263 261 261 262 263 263 263 263 265 268 270 269 267 264 264 265 266 266 264 258 255 253 246 236 231 227 225 226 227 228 228 228 228 229
229 231 235 239 237 232 228 227 226 227 228 228 227 225 223 224 226 228 231 236 237 234 232 240 248 250 248 245 243 243 244 244 244 245 247 249 249 249 249 250 250 251 253 255 256 257 258 259 260 262 264 264 264 262 261 261 262 263 264 263 263 265 268 269 267 264 262 262 262 261 260 258 256 256 255 254 252 247 236 229 230 231 230 230 235 242
216 214 214 216 214 212 216 219 222 225 226 222 217 215 215 217 221 225 228 230 234 235 235 238 242 246 247 246 244 244 245 246 246 247 247 248 248 248 248 249 249 250 251 253 256 257 258 258 259 259 260 261 263 263 261 261 262 263 265 265 263 264 265 266 267 267 265 262 258 256 258 259 255 252 251 253 255 255 252 247 244 241 235 234 240 249
205 201 196 192 185 182 190 197 200 206 210 209 208 210 215 220 224 228 231 233 235 237 241 244 246 249 251 252 251 251 251 251 252 251 251 252 252 251 249 248 247 248 249 250 252 255 256 255 255 256 257 260 262 264 263 262 263 264 266 267 267 266 265 265 266 266 263 258 257 261 264 261 252 247 248 252 254 256 256 253 250 245 237 231 229 235
204 206 206 196 177 167 173 176 176 181 189 196 203 207 213 220 227 231 235 239 241 242 244 246 248 250 252 254 255 255 254 254 254 254 254 254 254 255 253 251 249 248 247 245 246 249 252 253 254 254 256 257 260 262 263 263 264 265 267 268 269 268 266 262 260 260 259 256 258 263 264 261 256 252 251 251 252 254 255 252 249 245 242 240 237 238
201 205 207 200 185 179 179 176 176 180 186 195 204 211 216 223 230 235 239 243 246 248 249 250 251 252 253 254 255 256 256 255 254 254 254 254 254 254 253 252 251 249 246 244 243 245 248 251 251 252 253 255 257 260 261 262 263 265 266 268 268 266 263 262 261 259 258 256 255 254 252 253 256 257 254 251 250 251 251 250 248 246 245 245 246 247
186 188 186 180 178 182 182 179 181 185 194 204 214 223 231 238 244 248 252 255 257 259 260 260 260 260 260 259 259 258 258 258 257 256 255 253 252 252 251 251 250 249 246 244 244 246 248 249 249 250 251 255 258 259 260 261 261 261 261 263 263 259 255 257 261 263 263 263 261 256 251 250 251 252 252 254 254 254 252 251 250 250 251 252 253 254
167 166 169 170 173 179 186 191 196 203 212 222 232 240 246 253 258 261 264 267 268 269 270 270 270 268 267 266 265 263 262 261 261 260 259 256 253 252 251 250 249 248 247 246 246 248 250 250 250 251 252 254 256 258 258 259 259 261 262 260 259 255 248 244 246 249 250 254 258 259 258 256 254 252 252 255 256 255 254 254 254 255 255 255 256 256
159 160 165 169 173 181 193 202 210 217 226 236 246 254 259 264 268 271 275 277 278 280 281 280 279 277 274 271 269 266 264 263 262 261 260 259 258 256 253 251 250 248 248 247 247 248 249 250 250 251 252 253 255 257 257 255 252 254 258 258 256 255 249 244 242 240 236 236 241 246 249 252 252 251 252 254 255 255 254 254 254 254 254 254 255 257
Height
5741 5743 5746 5749 5753 5755 5757 5759 5761 5762 5763 5765 5765 5766 5768 5771 5775 5777 5776 5777 5778 5778 5776 5776 5778 5783 5784 5784 5782 5782 5781 5782 5783 5783 5783 5784 5785 5786 5787 5787 5786 5787 5789 5790 5790 5791 5792 5793 5795 5796 5795 5794 5793 5793 5791 5788 5786 5786 5787 5789 5789 5788 5787 5788 5789 5790 5790 5790 5791 5793 5795 5797 5799 5801 5801 5802 5804 5806 5809 5811 5812 5811 5812 5814 5815 5815
5739 5742 5746 5749 5751 5752 5754 5756 5758 5759 5760 5762 5762 5763 5766 5770 5774 5776 5777 5777 5776 5775 5775 5774 5775 5779 5782 5783 5781 5780 5779 5780 5780 5780 5780 5781 5782 5784 5785 5785 5784 5785 5786 5787 5787 5788 5789 5789 5790 5791 5791 5791 5790 5789 5787 5785 5784 5785 5786 5786 5786 5785 5785 5785 5788 5789 5790 5792 5792 5793 5794 5796 5797 5798 5800 5800 5802 5804 5807 5809 5811 5811 5811 5812 5813 5814
5738 5742 5745 5746 5748 5749 5750 5752 5755 5757 5758 5759 5759 5760 5764 5768 5771 5774 5776 5775 5774 5774 5774 5772 5771 5775 5779 5781 5780 5779 5778 5778 5777 5776 5777 5777 5777 5780 5782 5782 5782 5782 5783 5784 5784 5785 5785 5784 5785 5786 5787 5786 5785 5784 5783 5784 5784 5784 5785 5785 5784 5785 5784 5783 5786 5787 5788 5790 5791 5792 5794 5795 5796 5797 5799 5800 5801 5802 5805 5807 5808 5809 5809 5810 5812 5813
5737 5740 5741 5742 5744 5745 5747 5750 5753 5754 5755 5756 5757 5759 5762 5765 5768 5770 5772 5773 5773 5773 5771 5769 5768 5772 5776 5777 5778 5778 5777 5777 5776 5775 5774 5773 5774 5776 5778 5779 5779 5779 5779 5780 5780 5781 5781 5780 5780 5782 5782 5782 5782 5782 5784 5784 5782 5783 5785 5785 5783 5785 5786 5784 5785 5786 5786 5788 5790 5792 5793 5794 5795 5796 5798 5799 5800 5801 5802 5804 5806 5807 5808 5809 5810 5811
5735 5736 5737 5738 5740 5742 5745 5747 5750 5751 5751 5752 5754 5758 5761 5763 5765 5767 5769 5770 5771 5770 5768 5768 5767 5768 5772 5774 5775 5776 5776 5776 5776 5774 5772 5771 5771 5773 5774 5775 5776 5777 5776 5776 5776 5777 5777 5775 5776 5777 5778 5779 5780 5780 5781 5779 5779 5782 5785 5784 5782 5783 5784 5783 5783 5784 5785 5787 5788 5790 5792 5793 5795 5796 5797 5799 5800 5801 5801 5802 5803 5804 5806 5807 5809 5810
5732 5732 5733 5735 5737 5739 5741 5744 5746 5747 5749 5750 5753 5757 5759 5761 5762 5764 5765 5765 5765 5765 5766 5767 5765 5765 5769 5771 5772 5773 5774 5774 5774 5774 5772 5770 5769 5769 5770 5771 5772 5774 5775 5774 5774 5774 5773 5772 5773 5775 5776 5777 5778 5778 5778 5777 5778 5781 5782 5782 5781 5781 5781 5781 5781 5784 5786 5787 5788 5789 5791 5792 5794 5795 5797 5798 5800 5801 5801 5801 5802 5802 5804 5806 5807 5808
5728 5729 5731 5733 5735 5737 5738 5740 5742 5744 5746 5749 5752 5755 5756 5758 5760 5761 5762 5761 5762 5764 5764 5764 5762 5763 5767 5769 5770 5771 5771 5770 5770 5771 5771 5770 5768 5766 5767 5769 5769 5771 5772 5772 5773 5772 5770 5770 5772 5773 5773 5774 5776 5777 5776 5775 5777 5780 5780 5780 5781 5781 5780 5780 5782 5784 5786 5787 5788 5789 5790 5791 5793 5794 5795 5797 5798 5800 5800 5801 5801 5801 5802 5804 5805 5806
5726 5727 5728 5730 5731 5733 5735 5737 5739 5740 5744 5747 5750 5752 5753 5755 5757 5759 5760 5761 5762 5763 5762 5760 5759 5761 5765 5767 5768 5767 5768 5768 5767 5767 5768 5768 5766 5763 5763 5766 5766 5767 5769 5770 5770 5768 5767 5768 5770 5771 5771 5772 5774 5774 5773 5773 5774 5776 5777 5778 5780 5781 5781 5781 5782 5784 5785 5786 5788 5789 5790 5791 5791 5792 5793 5795 5796 5798 5799 5799 5800 5800 5801 5802 5803 5804
5724 5725 5726 5728 5729 5731 5732 5735 5737 5739 5742 5745 5747 5749 5751 5752 5754 5756 5757 5758 5759 5759 5759 5759 5760 5760 5763 5765 5765 5764 5766 5765 5763 5763 5763 5762 5762 5761 5761 5763 5763 5763 5764 5765 5765 5764 5765 5767 5768 5769 5769 5769 5771 5772 5772 5772 5772 5773 5774 5775 5778 5780 5781 5782 5783 5784 5784 5785 5787 5789 5790 5790 5790 5791 5792 5793 5794 5796 5797 5798 5799 5799 5800 5801 5802 5802
5720 5723 5725 5726 5728 5729 5731 5734 5735 5737 5739 5742 5744 5745 5746 5747 5749 5750 5751 5753 5754 5754 5755 5758 5759 5759 5761 5762 5762 5762 5763 5762 5761 5761 5760 5760 5760 5760 5760 5760 5760 5760 5760 5761 5762 5763 5764 5766 5767 5767 5766 5767 5769 5770 5771 5771 5771 5772 5772 5773 5776 5778 5780 5782 5782 5783 5784 5785 5786 5787 5788 5788 5789 5789 5790 5791 5792 5794 5795 5796 5797 5798 5799 5799 5799 5799
5717 5720 5722 5724 5725 5726 5729 5731 5732 5734 5736 5739 5741 5742 5743 5744 5745 5746 5748 5751 5751 5750 5753 5757 5757 5757 5758 5759 5758 5758 5759 5759 5759 5759 5760 5760 5760 5759 5758 5758 5758 5758 5759 5761 5762 5763 5763 5764 5765 5765 5765 5766 5768 5769 5769 5769 5770 5771 5771 5771 5773 5776 5778 5779 5780 5781 5782 5784 5785 5785 5786 5787 5787 5788 5788 5789 5790 5792 5793 5794 5795 5796 5797 5797 5797 5797
5715 5716 5718 5720 5722 5724 5726 5729 5730 5732 5733 5735 5738 5739 5741 5742 5742 5743 5746 5748 5748 5748 5752 5755 5754 5754 5756 5756 5755 5754 5755 5756 5757 5758 5759 5760 5759 5757 5756 5757 5756 5756 5758 5760 5761 5762 5762 5762 5763 5763 5763 5764 5765 5766 5765 5766 5768 5769 5769 5769 5771 5773 5775 5776 5777 5778 5780 5781 5782 5783 5784 5786 5786 5786 5787 5787 5788 5789 5790 5792 5793 5793 5794 5794 5794 5795
5712 5713 5715 5718 5720 5721 5724 5727 5729 5729 5730 5732 5735 5737 5738 5739 5740 5741 5744 5745 5745 5747 5751 5752 5751 5752 5752 5752 5751 5752 5753 5754 5755 5757 5757 5758 5757 5755 5755 5755 5753 5753 5755 5757 5759 5759 5758 5759 5760 5760 5761 5761 5762 5762 5762 5762 5764 5765 5766 5768 5769 5770 5771 5772 5773 5774 5776 5778 5779 5780 5782 5784 5785 5785 5785 5786 5786 5787 5788 5789 5790 5791 5791 5792 5792 5793
5710 5711 5713 5716 5718 5720 5722 5724 5726 5727 5728 5730 5733 5734 5735 5737 5738 5739 5741 5743 5744 5745 5747 5748 5749 5750 5749 5748 5748 5749 5751 5752 5753 5754 5755 5755 5754 5754 5753 5752 5751 5750 5752 5754 5756 5757 5756 5757 5757 5757 5758 5758 5759 5759 5759 5759 5759 5759 5762 5765 5767 5767 5768 5769 5770 5770 5771 5773 5775 5777 5779 5781 5782 5783 5783 5784 5785 5785 5785 5786 5787 5788 5789 5789 5790 5791
5708 5709 5711 5713 5716 5719 5721 5722 5724 5725 5726 5728 5731 5732 5733 5734 5736 5737 5739 5740 5741 5743 5744 5745 5746 5747 5746 5745 5746 5748 5749 5750 5751 5752 5752 5752 5752 5752 5751 5750 5748 5748 5749 5750 5752 5753 5754 5754 5753 5754 5755 5755 5755 5755 5755 5756 5755 5754 5758 5763 5765 5765 5766 5767 5767 5768 5768 5769 5771 5773 5775 5777 5779 5780 5781 5781 5782 5782 5783 5783 5784 5785 5785 5786 5788 5789
5706 5708 5710 5712 5714 5717 5718 5720 5721 5722 5723 5725 5727 5729 5730 5732 5734 5735 5736 5737 5738 5739 5741 5743 5743 5743 5744 5743 5744 5746 5747 5748 5749 5749 5749 5749 5749 5750 5749 5747 5746 5745 5745 5746 5748 5749 5750 5750 5751 5751 5752 5751 5751 5751 5751 5753 5753 5753 5756 5760 5763 5764 5764 5765 5766 5766 5766 5766 5768 5769 5771 5773 5775 5776 5777 5778 5779 5780 5780 5780 5781 5781 5782 5784 5786 5787
5704 5707 5709 5710 5711 5713 5716 5718 5719 5720 5721 5722 5724 5726 5729 5731 5732 5733 5734 5735 5736 5736 5738 5740 5741 5741 5741 5741 5742 5744 5744 5745 5746 5746 5747 5746 5746 5747 5746 5745 5744 5742 5742 5743 5744 5745 5746 5747 5748 5749 5749 5748 5747 5747 5748 5750 5752 5753 5755 5758 5761 5762 5763 5763 5763 5764 5764 5764 5765 5767 5768 5770 5771 5772 5773 5774 5775 5776 5777 5778 5778 5779 5780 5781 5783 5784
5703 5705 5707 5709 5710 5712 5714 5716 5717 5718 5720 5721 5722 5725 5728 5729 5729 5730 5732 5733 5733 5734 5736 5738 5738 5738 5738 5738 5740 5741 5741 5742 5743 5744 5744 5744 5743 5743 5743 5743 5742 5740 5740 5741 5742 5742 5743 5744 5744 5745 5746 5745 5744 5743 5744 5746 5749 5751 5751 5753 5757 5759 5759 5759 5760 5760 5761 5762 5763 5765 5767 5768 5768 5769 5770 5771 5772 5773 5774 5775 5776 5776 5778 5779 5781 5781
5700 5703 5705 5706 5708 5710 5712 5713 5714 5716 5718 5719 5720 5723 5725 5727 5728 5728 5729 5730 5731 5732 5733 5735 5736 5734 5735 5736 5738 5739 5738 5739 5741 5741 5741 5741 5740 5740 5740 5740 5739 5738 5738 5739 5740 5740 5741 5741 5741 5741 5741 5741 5741 5740 5739 5740 5743 5745 5746 5747 5750 5753 5753 5754 5755 5756 5757 5759 5762 5764 5767 5767 5767 5767 5767 5768 5769 5769 5770 5771 5772 5773 5775 5776 5778 5778
5697 5699 5702 5705 5707 5708 5709 5710 5712 5715 5717 5718 5719 5720 5722 5725 5726 5727 5727 5728 5729 5730 5731 5733 5732 5731 5731 5733 5735 5737 5737 5737 5738 5738 5738 5738 5737 5737 5737 5736 5736 5736 5736 5737 5738 5739 5740 5740 5740 5739 5737 5737 5738 5737 5735 5735 5738 5740 5742 5744 5746 5749 5750 5752 5754 5755 5757 5759 5762 5763 5764 5765 5765 5765 5765 5766 5766 5766 5767 5768 5769 5770 5772 5774 5775 5776
5694 5696 5700 5703 5705 5705 5706 5708 5711 5713 5715 5717 5718 5718 5720 5722 5723 5724 5725 5726 5727 5727 5728 5730 5729 5727 5729 5731 5733 5735 5735 5735 5735 5735 5736 5736 5735 5734 5734 5734 5734 5734 5735 5736 5736 5737 5739 5739 5739 5738 5736 5736 5737 5736 5734 5734 5735 5737 5740 5744 5747 5749 5751 5753 5755 5757 5759 5761 5762 5761 5761 5761 5762 5762 5763 5763 5764 5764 5765 5766 5767 5768 5770 5771 5772 5773
5691 5694 5698 5701 5702 5703 5704 5707 5710 5712 5713 5714 5716 5718 5719 5720 5721 5722 5722 5723 5724 5724 5725 5726 5725 5725 5726 5729 5731 5732 5733 5733 5733 5732 5732 5732 5732 5732 5733 5733 5733 5734 5734 5734 5733 5734 5736 5737 5737 5737 5736 5736 5736 5736 5735 5735 5735 5737 5740 5744 5747 5748 5750 5752 5753 5755 5757 5758 5759 5758 5757 5758 5759 5759 5760 5760 5761 5762 5763 5764 5766 5767 5767 5768 5769 5770
5688 5690 5694 5696 5698 5700 5703 5706 5708 5710 5711 5713 5715 5716 5717 5718 5719 5719 5719 5720 5721 5722 5723 5724 5723 5722 5724 5727 5729 5729 5731 5731 5731 5729 5729 5729 5730 5731 5732 5732 5732 5732 5733 5732 5732 5733 5733 5735 5736 5736 5735 5735 5735 5735 5736 5736 5737 5738 5741 5743 5746 5747 5748 5749 5750 5751 5753 5753 5753 5753 5754 5755 5756 5757 5757 5757 5757 5759 5760 5762 5763 5764 5764 5765 5766 5767
5685 5687 5689 5692 5694 5698 5701 5703 5704 5705 5707 5709 5710 5710 5712 5713 5714 5714 5715 5717 5719 5719 5720 5721 5721 5721 5722 5725 5727 5727 5728 5729 5728 5728 5727 5727 5728 5729 5730 5731 5730 5731 5731 5731 5731 5731 5731 5733 5734 5734 5734 5735 5734 5734 5735 5736 5737 5738 5739 5740 5743 5744 5746 5747 5747 5748 5748 5749 5749 5749 5750 5751 5752 5753 5754 5754 5755 5756 5757 5759 5760 5761 5762 5763 5764 5765
5683 5684 5686 5688 5691 5695 5698 5699 5699 5701 5702 5702 5703 5705 5707 5708 5709 5711 5713 5715 5716 5716 5716 5718 5718 5718 5720 5723 5724 5725 5726 5726 5726 5726 5725 5725 5727 5727 5728 5729 5729 5729 5729 5730 5730 5730 5729 5730 5731 5731 5732 5733 5733 5733 5734 5735 5735 5736 5736 5738 5740 5742 5744 5745 5744 5744 5745 5745 5746 5746 5747 5747 5748 5749 5750 5751 5752 5753 5754 5755 5757 5758 5760 5761 5762 5763
5681 5681 5683 5685 5688 5691 5694 5694 5695 5697 5698 5698 5700 5702 5704 5705 5707 5709 5710 5712 5713 5713 5713 5715 5715 5716 5718 5720 5722 5723 5724 5724 5724 5723 5723 5723 5724 5725 5726 5726 5726 5727 5727 5727 5728 5728 5728 5728 5729 5729 5730 5731 5732 5732 5732 5733 5734 5735 5735 5736 5739 5740 5741 5741 5741 5741 5741 5741 5742 5743 5744 5744 5745 5746 5747 5748 5749 5750 5751 5752 5754 5756 5757 5759 5760 5761
5679 5680 5681 5683 5685 5687 5689 5690 5691 5694 5695 5696 5698 5699 5701 5703 5705 5707 5708 5709 5711 5711 5712 5713 5713 5715 5716 5719 5721 5721 5722 5722 5722 5721 5721 5721 5722 5723 5724 5724 5724 5724 5724 5725 5725 5726 5726 5727 5727 5728 5728 5729 5730 5730 5731 5731 5732 5734 5734 5735 5736 5737 5739 5739 5738 5738 5738 5739 5739 5740 5740 5741 5742 5744 5744 5745 5746 5747 5748 5749 5751 5753 5755 5756 5758 5759
5677 5677 5679 5681 5683 5685 5686 5688 5690 5692 5693 5695 5696 5697 5699 5701 5703 5705 5706 5707 5708 5709 5710 5711 5712 5713 5715 5717 5719 5720 5720 5720 5720 5720 5720 5720 5720 5721 5722 5722 5722 5722 5722 5723 5723 5724 5724 5725 5725 5726 5727 5727 5728 5729 5729 5730 5731 5732 5733 5733 5734 5735 5737 5737 5736 5736 5737 5737 5737 5737 5737 5738 5741 5742 5742 5743 5744 5745 5746 5746 5748 5750 5752 5753 5754 5755
5674 5675 5676 5679 5681 5683 5685 5686 5687 5690 5692 5693 5694 5695 5697 5699 5701 5703 5704 5705 5707 5707 5708 5709 5710 5712 5713 5714 5716 5718 5718 5718 5718 5719 5719 5718 5719 5719 5720 5720 5720 5721 5721 5721 5721 5722 5722 5723 5723 5724 5725 5725 5726 5727 5728 5728 5729 5730 5731 5731 5731 5732 5733 5734 5733 5733 5734 5734 5734 5735 5735 5736 5737 5738 5739 5740 5742 5743 5743 5744 5745 5747 5749 5750 5751 5752
5671 5672 5673 5676 5678 5680 5682 5683 5684 5688 5689 5690 5692 5693 5694 5696 5698 5700 5702 5704 5705 5705 5706 5707 5708 5710 5711 5712 5714 5715 5716 5716 5716 5717 5717 5717 5717 5717 5718 5718 5718 5719 5719 5719 5720 5720 5721 5721 5721 5722 5722 5723 5724 5725 5726 5727 5727 5728 5728 5729 5729 5729 5729 5730 5730 5730 5730 5730 5731 5731 5731 5732 5734 5735 5736 5738 5739 5740 5740 5741 5743 5745 5746 5747 5748 5750
5668 5670 5671 5672 5674 5677 5679 5680 5682 5684 5686 5688 5689 5691 5692 5693 5694 5696 5698 5701 5703 5703 5704 5705 5706 5707 5708 5709 5711 5712 5714 5714 5715 5715 5715 5715 5715 5715 5715 5716 5716 5717 5717 5718 5718 5718 5719 5719 5719 5720 5720 5720 5721 5722 5723 5724 5725 5725 5726 5726 5726 5726 5726 5726 5727 5726 5726 5727 5727 5727 5728 5730 5731 5733 5734 5735 5736 5736 5737 5738 5740 5742 5744 5745 5746 5748
5664 5666 5668 5669 5671 5673 5675 5677 5678 5681 5683 5685 5687 5688 5690 5690 5691 5693 5695 5697 5699 5700 5702 5703 5703 5705 5706 5707 5708 5709 5710 5712 5713 5713 5713 5713 5713 5714 5714 5714 5714 5715 5715 5716 5716 5717 5717 5717 5717 5718 5718 5718 5719 5719 5720 5721 5721 5722 5723 5723 5724 5724 5723 5722 5723 5723 5723 5724 5725 5725 5725 5727 5729 5730 5731 5733 5733 5734 5735 5736 5738 5740 5741 5743 5744 5747
5661 5663 5665 5666 5668 5670 5672 5673 5674 5677 5679 5682 5684 5686 5687 5688 5689 5690 5692 5695 5696 5697 5699 5700 5701 5702 5703 5704 5705 5706 5707 5708 5709 5710 5711 5711 5711 5712 5712 5712 5713 5713 5714 5714 5715 5715 5715 5716 5716 5716 5716 5716 5717 5717 5718 5718 5719 5719 5720 5720 5721 5721 5720 5719 5719 5720 5720 5721 5722 5723 5723 5725 5727 5728 5729 5730 5731 5731 5733 5735 5736 5737 5739 5740 5742 5743
5657 5659 5661 5662 5664 5667 5669 5669 5670 5673 5675 5678 5681 5683 5684 5685 5686 5688 5690 5692 5693 5694 5695 5697 5699 5700 5700 5701 5702 5703 5704 5705 5706 5707 5708 5709 5709 5709 5710 5710 5710 5711 5712 5713 5713 5714 5714 5714 5715 5715 5715 5715 5715 5715 5716 5716 5717 5717 5717 5718 5718 5718 5718 5717 5717 5717 5718 5719 5719 5720 5721 5723 5724 5725 5726 5727 5728 5729 5731 5732 5733 5735 5736 5737 5738 5739
5655 5656 5658 5660 5661 5664 5666 5666 5667 5669 5672 5675 5678 5680 5681 5682 5684 5685 5687 5689 5690 5690 5692 5694 5695 5696 5697 5698 5700 5700 5701 5702 5703 5704 5705 5706 5706 5707 5707 5707 5708 5709 5710 5711 5712 5712 5713 5713 5713 5713 5713 5714 5714 5714 5714 5715 5715 5715 5715 5716 5716 5716 5715 5715 5715 5714 5715 5716 5717 5718 5719 5721 5721 5722 5724 5724 5725 5727 5728 5729 5731 5732 5733 5734 5735 5736
5653 5654 5656 5658 5659 5661 5663 5663 5664 5666 5669 5671 5674 5676 5678 5679 5681 5682 5684 5686 5687 5687 5689 5690 5691 5693 5694 5695 5696 5697 5698 5699 5700 5701 5702 5702 5703 5704 5704 5705 5705 5706 5707 5708 5709 5710 5711 5712 5712 5712 5712 5712 5713 5713 5713 5713 5714 5714 5714 5714 5714 5713 5713 5713 5713 5713 5713 5714 5715 5715 5717 5718 5719 5720 5722 5722 5723 5724 5726 5727 5728 5729 5730 5732 5733 5734
5650 5652 5653 5655 5657 5659 5660 5662 5663 5664 5666 5668 5670 5673 5675 5677 5678 5679 5681 5682 5684 5684 5685 5687 5688 5689 5690 5691 5693 5694 5695 5697 5697 5698 5698 5699 5700 5700 5701 5702 5702 5703 5703 5704 5706 5707 5708 5709 5709 5710 5710 5711 5711 5711 5711 5712 5712 5712 5712 5712 5712 5712 5712 5711 5711 5711 5711 5712 5712 5713 5714 5715 5717 5719 5720 5721 5722 5722 5724 5725 5726 5727 5728 5729 5730 5731
5648 5649 5651 5652 5654 5656 5657 5659 5660 5662 5663 5665 5667 5669 5671 5673 5675 5676 5677 5679 5680 5681 5682 5683 5685 5686 5687 5687 5689 5690 5692 5693 5694 5695 5695 5696 5696 5697 5698 5698 5699 5699 5700 5701 5702 5703 5705 5706 5706 5707 5708 5708 5709 5709 5709 5709 5710 5710 5710 5710 5710 5711 5711 5710 5710 5709 5709 5709 5710 5711 5712 5713 5714 5716 5717 5719 5720 5720 5721 5722 5723 5725 5727 5726 5726 5727
5645 5646 5648 5650 5651 5653 5655 5656 5658 5659 5661 5663 5664 5666 5668 5669 5671 5672 5673 5675 5677 5678 5679 5680 5681 5682 5683 5684 5685 5687 5688 5690 5691 5691 5692 5692 5693 5694 5694 5695 5696 5696 5697 5697 5698 5699 5700 5701 5702 5704 5705 5705 5706 5706 5707 5707 5707 5707 5707 5708 5708 5709 5709 5709 5708 5708 5708 5708 5708 5709 5710 5711 5712 5713 5714 5716 5717 5717 5718 5719 5720 5722 5723 5723 5723 5725
5641 5643 5645 5647 5648 5650 5652 5654 5655 5657 5658 5660 5661 5663 5664 5665 5667 5668 5669 5671 5673 5675 5675 5676 5677 5677 5679 5680 5681 5682 5684 5686 5687 5688 5688 5689 5690 5691 5691 5692 5692 5693 5694 5694 5694 5695 5696 5697 5698 5699 5700 5702 5703 5703 5704 5704 5704 5705 5705 5705 5706 5706 5706 5706 5706 5706 5707 5707 5707 5707 5708 5709 5710 5711 5711 5712 5712 5713 5714 5715 5716 5717 5718 5719 5720 5722
5638 5640 5642 5644 5645 5647 5649 5651 5653 5655 5656 5657 5658 5659 5661 5662 5664 5665 5666 5667 5669 5670 5671 5672 5672 5673 5674 5675 5676 5678 5680 5681 5682 5683 5684 5685 5686 5687 5687 5688 5689 5690 5690 5690 5691 5691 5692 5693 5694 5695 5696 5698 5699 5699 5700 5701 5701 5702 5703 5702 5703 5703 5704 5704 5704 5704 5704 5705 5705 5706 5706 5707 5709 5709 5709 5710 5710 5710 5710 5711 5712 5713 5714 5716 5716 5717
5636 5638 5639 5641 5643 5644 5646 5648 5651 5652 5653 5654 5656 5657 5658 5660 5661 5662 5663 5664 5665 5666 5667 5668 5669 5670 5671 5671 5672 5674 5675 5677 5678 5679 5680 5681 5682 5683 5683 5684 5685 5686 5686 5687 5688 5688 5689 5689 5690 5691 5692 5693 5694 5695 5696 5697 5698 5699 5700 5700 5699 5700 5701 5701 5701 5701 5702 5702 5702 5703 5704 5705 5706 5706 5707 5707 5707 5707 5707 5708 5709 5710 5711 5712 5713 5714
5635 5636 5638 5639 5641 5642 5644 5646 5648 5650 5651 5652 5654 5655 5656 5658 5659 5660 5661 5662 5663 5664 5665 5665 5666 5667 5668 5668 5669 5670 5671 5672 5673 5675 5676 5677 5678 5678 5679 5680 5681 5681 5682 5683 5684 5684 5685 5685 5686 5687 5688 5689 5690 5691 5692 5693 5693 5694 5695 5696 5696 5697 5697 5698 5698 5698 5699 5699 5700 5700 5701 5702 5702 5703 5703 5703 5704 5704 5704 5705 5705 5706 5707 5708 5709 5710
5634 5636 5637 5638 5639 5640 5642 5644 5646 5648 5649 5650 5652 5653 5654 5656 5657 5658 5659 5660 5661 5662 5663 5664 5664 5665 5666 5666 5666 5667 5668 5668 5669 5670 5672 5673 5673 5674 5675 5675 5676 5677 5678 5679 5680 5681 5681 5682 5682 5683 5684 5684 5686 5687 5688 5689 5689 5690 5691 5692 5693 5693 5693 5694 5695 5695 5696 5696 5696 5696 5697 5698 5699 5699 5699 5700 5700 5700 5701 5702 5702 5702 5703 5705 5706 5707
5634 5635 5636 5637 5638 5639 5641 5642 5644 5646 5647 5648 5650 5651 5652 5654 5655 5656 5657 5658 5659 5660 5661 5662 5663 5663 5663 5664 5664 5665 5665 5666 5667 5667 5668 5669 5669 5670 5671 5671 5672 5673 5674 5674 5675 5676 5677 5677 5678 5678 5679 5680 5681 5682 5683 5685 5685 5686 5686 5687 5688 5689 5690 5690 5691 5692 5692 5692 5692 5692 5693 5695 5696 5696 5696 5696 5696 5696 5698 5698 5699 5700 5701 5702 5703 5704
5633 5634 5636 5637 5637 5639 5640 5642 5643 5645 5646 5648 5649 5650 5651 5652 5653 5654 5656 5656 5657 5658 5659 5659 5660 5660 5661 5661 5662 5662 5663 5663 5664 5665 5665 5666 5666 5666 5667 5668 5668 5668 5669 5670 5671 5671 5672 5673 5673 5673 5674 5676 5677 5678 5679 5680 5681 5681 5682 5683 5684 5685 5686 5686 5687 5688 5688 5689 5689 5689 5689 5690 5691 5692 5692 5692 5693 5694 5695 5695 5696 5697 5698 5699 5700 5700
5633 5634 5636 5637 5637 5639 5640 5641 5642 5644 5645 5647 5648 5649 5650 5651 5652 5653 5654 5655 5655 5656 5657 5657 5657 5658 5658 5659 5659 5660 5660 5661 5661 5662 5663 5663 5663 5663 5664 5664 5664 5665 5665 5666 5667 5667 5668 5668 5668 5669 5670 5672 5673 5673 5674 5675 5676 5677 5678 5679 5679 5680 5681 5682 5683 5684 5684 5685 5686 5686 5686 5686 5687 5688 5689 5689 5690 5690 5691 5691 5692 5693 5694 5695 5696 5697
5632 5634 5635 5637 5638 5639 5640 5641 5642 5643 5645 5646 5647 5648 5649 5650 5651 5652 5652 5653 5653 5654 5654 5655 5655 5655 5655 5656 5656 5656 5657 5657 5658 5658 5659 5660 5660 5660 5661 5661 5661 5662 5662 5662 5663 5663 5664 5664 5664 5665 5666 5666 5668 5669 5670 5670 5671 5672 5673 5674 5675 5676 5676 5677 5678 5679 5680 5681 5682 5683 5683 5683 5683 5684 5684 5685 5686 5687 5687 5687 5688 5689 5689 5690 5691 5692
5632 5633 5635 5636 5637 5638 5640 5641 5642 5643 5644 5645 5646 5647 5648 5649 5650 5650 5651 5651 5651 5652 5652 5652 5652 5652 5652 5652 5652 5653 5653 5653 5653 5654 5655 5655 5656 5656 5657 5657 5658 5658 5658 5658 5659 5659 5660 5660 5660 5661 5661 5662 5663 5664 5664 5665 5666 5667 5668 5669 5670 5671 5672 5673 5674 5674 5675 5676 5677 5678 5679 5680 5680 5681 5681 5681 5681 5682 5683 5683 5684 5684 5685 5685 5686 5687
5632 5633 5634 5636 5637 5638 5640 5641 5642 5643 5644 5645 5646 5646 5647 5648 5648 5648 5649 5649 5649 5649 5649 5649 5649 5649 5649 5648 5648 5648 5649 5649 5649 5649 5649 5650 5650 5651 5652 5652 5653 5653 5654 5654 5655 5655 5655 5656 5656 5657 5657 5658 5658 5659 5660 5660 5661 5662 5663 5665 5666 5667 5669 5670 5671 5671 5671 5672 5672 5673 5674 5675 5676 5676 5677 5677 5677 5678 5678 5679 5679 5680 5680 5681 5681 5682
5632 5633 5634 5636 5637 5638 5640 5641 5641 5642 5643 5644 5645 5645 5646 5646 5646 5647 5647 5647 5646 5646 5646 5646 5645 5645 5644 5644 5644 5644 5644 5644 5644 5644 5644 5644 5644 5645 5646 5646 5647 5648 5648 5649 5649 5649 5650 5651 5652 5652 5653 5654 5654 5654 5655 5656 5657 5658 5659 5661 5662 5663 5664 5666 5667 5668 5668 5668 5668 5669 5669 5670 5671 5671 5672 5672 5673 5673 5674 5674 5675 5675 5676 5677 5677 5678